User: anonymous   Login
Location: L�gaud
(45.7115°N, 1.7775°E)
Time: 20:03:36
(UTC+00:00)
Language:

BREEZE-M DEB (TANK) - Orbit

View from above orbital plane
View from above orbital plane
View from above satellite
View from above satellite

Ground track
Ground track

The orbit data is extracted from the following two-line orbital elements,

1 29271U 06032C   21136.93000997  .00000715  00000-0  18466-3 0  9993
2 29271  49.5241 305.7109 5299276 116.2495 306.8314  5.11356373269063
Epoch (UTC): 16 May 2021 22:19:12
Eccentricity: 0.5299276
inclination: 49.5241°
perigee height: 312 km
apogee height: 15395 km
right ascension of ascending node: 305.7109°
argument of perigee: 116.2495°
revolutions per day: 5.11356373
mean anomaly at epoch: 306.8314°
orbit number at epoch: 26906

The dashed part of the orbit path shows where the satellite is in the earth's shadow,  

DLR